Погода в Прачуапкхирикхане

Таиланд     11°49′30″N   99°46′39″E
темп.,
°C
ветер,
м/с
пор.,
м/с
влажн.,
%
обл.,
%
осадки,
мм/ч
давл.,
гПа
погр.,
м
19 мая, ср
ср1901:00+27з48855 0.4 1008299
04:00+27з4983100 0.0 1006431
07:00+28з4107899 0.0 1008582
10:00+33зсз575699 0.0 1008831
13:00+36з3549100 0.0 10061509
16:00+34з675215 0.1 1005924
19:00+30зсз5968100 0.5 1007475
22:00+28з4878100 0.0 1008437
20 мая, чт
чт2001:00+27з4983100 0.0 1007450
04:00+27з498299 0.0 1006498
07:00+28з388060 0.0 1008517
10:00+33зюз465795 0.0 1009909
13:00+36зюз554894 0.0 10061525
16:00+34з895298 0.0 1005936
19:00+30з61070100 0.0 1006765
22:00+28зюз51076100 0.0 1008635
21 мая, пт
пт2101:00+28зюз4979100 0.0 1008555
04:00+27зюз488184 0.0 1006579
07:00+28з4107867 0.0 1007712
10:00+33зюз695551 0.0 1007997
13:00+35з8950100 0.0 10061308
16:00+32з7106199 0.0 10051176
19:00+28з61276100 0.0 1007925
22:00+27з51181100 0.4 1008709
22 мая, сб
сб2201:00+27з71381100 0.8 1006739
04:00+27з61379100 0.0 1006860
07:00+27з41080100 0.0 1008788
10:00+30зюз586187 0.0 10091292
13:00+31зюз796189 2.3 10061306
16:00+29зюз81269100 0.7 10051099
19:00+26зюз61477100 0.8 1006971
22:00+26зюз51278100 0.0 1007953
23 мая, вс
вс2301:00+26зюз61380100 0.3 1006932
04:00+26зюз71480100 0.6 10051036
07:00+26зюз51382100 2.3 10061028
10:00+26зюз51284100 0.9 10071001
13:00+27юз51278100 1.4 10061224
16:00+27юз61381100 3.1 10051262
19:00+26юз61281100 3.7 10061000
22:00+26юз3883100 0.0 1007476